Location: Moscow
(55.7500°N, 37.5830°E)
Time: 11:00:11
(UTC+03:00)

A-11 Canister half - Pass Details

Date: 05 December 2021
Orbit: 1516 x 1684 km, 47.2° (Epoch: 24 January)

Event Time Altitude Azimuth Distance (km) Brightness Sun altitude
Rises 09:57:33 0° 256° (WSW) 4,813 11.4 6.2°
Reaches altitude 10° 10:00:43 10° 252° (WSW) 3,850 11.0 6.4°
Maximum altitude 10:10:09 53° 180° (S) 1,966 10.3 7.1°
Drops below altitude 10° 10:19:50 10° 107° (ESE) 3,943 11.9 7.8°
Sets 10:23:07 0° 103° (ESE) 4,936 12.3 8.0°
